Location: Baumgarten
(49.0970°N, 12.7493°E)
Time: 08:18:39
(UTC+00:00)

Helios 1A - Pass Details

Date: 05 July 2020
Orbit: 587 x 600 km, 98.2° (Epoch: 01 August)

Event Time Altitude Azimuth Distance (km) Brightness Sun altitude
Exits shadow 23:24:56 38° 209° (SSW) 908 3.4 -18.2°
Maximum altitude 23:26:08 51° 259° (W) 743 3.3 -18.2°
Drops below altitude 10° 23:30:13 10° 337° (NNW) 1,925 6.5 -18.1°
Sets 23:32:26 0° 342° (NNW) 2,832 7.7 -18.1°
